Location: Unspecified
(22.6800°N, 112.2000°E)
Time: 12:58:12
(UTC+08:00)

Transit 2A - Pass Details

Date: 08 August 2021
Orbit: 594 x 964 km, 66.7° (Epoch: 21 September)

Event Time Altitude Azimuth Distance (km) Brightness Sun altitude
Rises 13:04:38 0° 8° (N) 3,401 9.3 80.7°
Reaches altitude 10° 13:09:49 10° 48° (NE) 2,565 8.7 79.8°
Maximum altitude 13:10:50 10° 58° (ENE) 2,552 8.7 79.6°
Drops below altitude 10° 13:11:51 10° 68° (ENE) 2,597 8.8 79.4°
Sets 13:17:17 0° 106° (ESE) 3,605 9.4 78.4°
